Regional Weather Roundup
Issued by NWS Midland/Odessa, TX

Skip options and go directly to product.
Home | Oldest Version | Next Version | Current Version | All | Text Only | Save Text | Print | Product List | Glossary On

Skip product version selection by date and time.   
356
ASUS44 KMAF 220001
RWRMAF
MIDLAND AREA WEATHER ROUNDUP
NATIONAL WEATHER SERVICE MIDLAND TX
600 PM CST SUN DEC 21 2014

...IN SOUTHWEST TEXAS AND SOUTHEAST NEW MEXICO...

CITY           SKY/WX    TMP DP  RH WIND       PRES   REMARKS
ALPINE         PTCLDY    59  23  25 W13G21    29.95F
ANDREWS        FAIR      62  26  25 SW8       29.74R
ARTESIA        MOCLDY    59  27  29 W23G32    29.76F
BIG SPRING     PTCLDY    64  28  25 SW7       29.75S
CARLSBAD       PTCLDY    61  25  25 W22G31    29.74S
DRYDEN           N/A     59  46  62 SE13      29.80F
FORT STOCKTON  PTCLDY    62  24  23 SW13      29.80S
GUAD PASS      NOT AVBL
HOBBS          CLEAR     59  27  29 SW17      29.76R
MARFA          PTCLDY    55  21  26 W22       29.93F
MIDLAND AIRPK  PTCLDY    66  26  21 SW10      29.74S
MIDLAND INTL   PTCLDY    64  26  23 SW15      29.74R
ODESSA         PTCLDY    63  24  22 W17       29.75S
PECOS          PTCLDY    66  24  20 SW15      29.78F
PRESIDIO       FAIR      68  27  21 S8        29.89F
SEMINOLE       MOCLDY    61  27  28 W8        29.74R
SNYDER         PTCLDY    63  29  28 SW13      29.71R
WINK           CLOUDY    65  23  20 W17G25    29.72F
$$
...OTHER STATIONS IN TEXAS...

CITY           SKY/WX    TMP DP  RH WIND       PRES   REMARKS
ABILENE        CLEAR     57  41  55 S13       29.72F
AMARILLO       CLOUDY    50  26  39 S7        29.62S
AUSTIN         CLOUDY    56  51  84 S10       29.88F
BROWNSVILLE    CLOUDY    64  61  90 N5        29.92F
CORPUS CHRISTI MOCLDY    60  55  83 SE6       29.92F
DALLAS FTW     CLOUDY    51  45  79 S16       29.82F
DEL RIO        CLEAR     54  48  80 E5        29.87S
EL PASO        MOCLDY    62  25  24 W8        29.90F
HOUSTON INT    CLOUDY    58  50  75 SE5       29.94F
LUBBOCK        CLOUDY    61  26  26 W21G32    29.63F
SAN ANGELO     CLEAR     58  43  57 S15       29.75F
SAN ANTONIO    CLOUDY    55  50  83 SW12      29.90F
WACO           CLOUDY    53  47  79 S14       29.86S
WICHITA FALLS  NOT AVBL
$$
...OTHER LOCATIONS IN NEW MEXICO...

CITY           SKY/WX    TMP DP  RH WIND       PRES   REMARKS
ALAMAGORDO     MOCLDY    54  27  35 NE5       29.90F
ALBUQUERQUE    PTCLDY    48  29  47 NE9       29.94R
CANNON AFB     NOT AVBL
CLOVIS         CLOUDY    55  27  33 W24G32    29.64S
HOLLOMAN AFB   NOT AVBL
ROSWELL        CLOUDY    62  25  24 W13       29.74F
RUIDOSO        MOCLDY    46  23  39 NW13G28   29.90S
SANTA FE       CLEAR     40  25  55 NE6       29.89S WCI  36
TRUTH OR CONSE PTCLDY    56  27  32 CALM      29.90S
TUCUMCARI      CLOUDY    56  23  27 W21       29.59F
$$

USA.gov is the U.S. government's official web portal to all federal, state and local government web resources and services.